www.pogodaiklimat.ru

Погода и климат >> Архив погоды >> Россия >> Хабаровский край >> Нелькан


АРХИВ ПОГОДЫ в Нелькане

Время (UTC), дата Ветер
(напр.,м/с)
 
Видим.   Явления Облачность Т
(С)
Тd
(С)
f
(%)
Тe
(С)
Тes
(С)
Комфортность P
(гПа)
Po
(гПа)
Тmin
(С)
Tmax
(С)
R
(мм)
R24
(мм)
S
(см)
21 8.09 штиль 0 50 км 10/0
[As op]
+3.9 +3.6 98 +3 +3 1001.2 963.3 +6.3 3
00 9.09 СВ 2 50 км 6/0
[Ac trans]
+11.0 +5.4 68 +10 +13 1000.3 963.0 +6.3
03 9.09 С 3 50 км 8/3 1000 м
[Cu med, cong Ci sp]
+14.5 +6.0 57 +14 +18 999.8 963.0
06 9.09 С 2 50 км 8/8 1000 м
[Sc]
+14.9 +5.8 54 +15 +16 1000.1 963.3
09 9.09 С 4 50 км 8/6 1000 м
[Sc Ac trans]
+12.5 +2.7 51 +11 +11 1002.7 965.5 +15.5
12 9.09 штиль 0 20 км 3/0
[Ac trans]
+8.8 +2.9 66 +8 +8 1006.2 968.4
15 9.09 штиль 0 20 км 3/0
[Ac trans]
+5.6 +0.5 70 +5 +5 1008.1 969.7
18 9.09 З 1 20 км 3/0
[Ac trans]
+3.4 -0.7 74 +2 +2 1009.8 971.0
21 9.09 ЮЗ 2 50 км 6/0
[Ac trans]
+3.1 -1.0 74 0 0 1011.4 972.6 +3.1
00 10.09 Ю 3 50 км 6/0
[Ac trans]
+9.2 +4.0 70 +7 +9 1011.2 973.2 +3.1
03 10.09 СЗ 1 50 км 8/4 1000 м
[Cu med, cong Ac trans]
+14.5 +5.7 55 +15 +18 1009.8 972.7
06 10.09 С 2 50 км 8/6 1000 м
[Sc Ac trans]
+15.0 +4.5 49 +15 +16 1009.1 972.0
09 10.09 С 1 50 км 4/0
[Ac trans]
+14.5 +5.4 54 +15 +15 1009.5 972.4 +15.2
12 10.09 штиль 0 20 км 3/0
[Ac trans]
+9.3 +3.8 68 +9 +9 1012.2 974.2
15 10.09 З 2 20 км 8/0
[Ac trans]
+6.2 +2.0 74 +4 +4 1013.5 975.0
18 10.09 ЮЗ 2 20 км 1/0
[Ac trans]
+4.4 +0.8 77 +2 +2 1014.1 975.3
21 10.09 ЮЗ 2 50 км 8/0
[Ac trans]
+3.4 -0.8 74 +1 +1 1015.1 976.2 +3.4
00 11.09 Ю 2 50 км 6/0
[Ac trans Ci sp]
+9.4 +4.7 72 +8 +11 1014.5 976.4 +3.4
03 11.09 Ю 2 50 км 4/0
[Ac trans]
+18.6 +10.4 59 +20 +25 1011.9 975.1
06 11.09 штиль 0 50 км 8/0
[Ac trans]
+18.2 +8.7 54 +18 +21 1010.8 974.0
09 11.09 С 1 50 км 8/0
[Ac trans]
+15.6 +7.4 58 +16 +16 1011.0 973.9 +18.6
12 11.09 штиль 0 20 км 8/0
[Ac trans]
+12.4 +6.3 66 +12 +12 1011.6 974.1
15 11.09 штиль 0 20 км 8/0
[Ac trans Ci sp]
+8.8 +4.5 74 +8 +8 1012.3 974.3
18 11.09 штиль 0 50 км 8/0
[Ac trans]
+7.1 +3.2 76 +6 +6 1012.2 973.9 +6.0
21 11.09 штиль 0 50 км 9/0
[Ac trans]
+6.0 +2.6 79 +5 +5 1012.5 974.1 +6.0
00 12.09 Ю 2 50 км 8/0
[Ac trans]
+10.8 +5.6 70 +10 +12 1011.9 974.2 +6.0
03 12.09 Ю 2 50 км 3/0
[As trans Ci fib]
+19.2 +8.2 49 +20 +26 1009.8 973.1
06 12.09 Ю 2 50 км 6/3 1000 м
[Cu med, cong Ac trans Ci sp]
+21.0 +8.2 44 +23 +25 комфорт 1008.3 971.9
09 12.09 ЮЗ 3 50 км 8/0
[Ac trans Ci sp]
+17.4 +6.5 49 +17 +17 1007.0 970.3 +21.0
12 12.09 ЮЗ 2 20 км 10/0
[As op]
+16.0 +6.4 53 +16 +16 1006.1 969.2
15 12.09 ЮЗ 2 20 км 8/0
[Ac trans]
+14.5 +2.0 43 +14 +14 1005.4 967.4
18 12.09 С 1 20 км 9/9 1000 м
[]
+10.2 +11 +11 1003.9 966.3
21 12.09 С 1 50 км 10/5 1000 м
[Sc Ac trans Cs]
+9.4 +4.7 72 +9 +9 1002.7 965.0 +9.4
00 13.09 В 1 50 км 9/6 1000 м
[Sc Ac trans Ci sp]
+10.8 +6.1 73 +11 +12 1000.5 963.2 +9.4
03 13.09 Ю 3 50 км 8/1 1000 м
[Sc Ac trans Ci sp]
+20.0 +10.4 54 +22 +25 комфорт 997.6 961.5
06 13.09 ЮЗ 2 50 км 10/6 1000 м
[Sc As op]
+18.6 +10.7 60 +20 +20 996.3 960.1
09 13.09 З 1 20 км слаб. дождь 10/5 1000 м
[Sc As op]
+16.2 +10.8 70 +17 +17 996.5 960.1 +20.0 0.3
12 13.09 З 2 10 км слаб. дождь 10/0
[As op]
+13.0 +9.1 77 +12 +12 996.3 959.4
15 13.09 З 1 10 км дождь 10/0
[As op]
+12.4 +8.6 78 +12 +12 994.2 957.4
18 13.09 штиль 0 10 км дождь 10/0
[As op]
+11.7 +8.3 80 +11 +11 992.9 956.0
21 13.09 С 3 10 км слаб. дождь 10/0
[As op]
+7.8 +4.6 80 +5 +5 994.2 956.8 +7.8 8
00 14.09 С 2 20 км {дождь} 10/0
[As op]
+3.2 +0.3 81 0 +1 998.8 960.5 +3.2
03 14.09 С 3 50 км 10/0
[As op]
+4.4 -0.4 71 +1 +2 1001.1 962.9
06 14.09 СВ 1 50 км 10/0
[As op]
+4.2 -1.0 69 +3 +4 1003.5 965.1
09 14.09 штиль 0 50 км 6/0
[Ac trans Ci sp]
+3.8 -3.8 58 +3 +3 1005.4 966.9 +4.4 0.6
12 14.09 З 1 20 км 3/0
[Ci sp]
+1.0 -5.4 62 -0 -0 1006.8 967.8
15 14.09 З 2 20 км ясно -0.4 -6.0 66 -4 -4 1007.7 968.5
18 14.09 ЮЗ 2 20 км ясно -3.4 -7.8 72 -7 -7 1008.0 968.4
21 14.09 З 2 50 км ясно -5.0 -8.2 78 -9 -9 1008.7 968.8 -5.0
00 15.09 Ю 2 50 км ясно +1.8 -2.3 74 -1 +2 1007.4 968.5 -5.0
03 15.09 Ю 2 50 км 3/0
[Ci sp]
+9.9 +0.3 51 +9 +15 1004.4 966.8
06 15.09 Ю 2 50 км 3/0
[Ci sp]
+12.4 -0.6 41 +12 +15 1002.6 965.3
09 15.09 ЮЗ 1 50 км 3/0
[Ci sp]
+9.4 -2.2 44 +9 +9 1002.7 965.0 +13.5
12 15.09 штиль 0 20 км 3/0
[Ci sp]
+2.2 -2.8 69 +1 +1 1003.9 965.2
15 15.09 С 2 20 км 10/0
[As op]
+1.8 -5.1 60 -1 -1 1003.1 964.4
18 15.09 С 2 4000 м слаб. дождь 10/0
[As op]
+0.5 -3.8 73 -3 -3 1001.9 963.0

 

Местоположение метеостанции Нелькан (Хабаровский край, Россия): широта 57.65 долгота 136.10 высота над уровнем моря 318 м.

В архиве по умолчанию представлена погода в Нелькане за последнюю неделю. Архивные данные за месяц целиком и за предыдущие месяцы, начиная с января 2011 года, Вы можете получить, выбрав интересующий диапазон дат из раскрывающегося списка и нажав кнопку "Ввод!".


*Определитесь, кто Вы:
робот инопланетянин человек

Внимание! Время в таблицах - всемирное. Для получения местного времени необходимо прибавить поправку, которая равна 10 ч.

Смотрите также архив погоды в соседних городах и на ближайших метеорологических станциях:

Погода в Усть-Юдоме (Якутия, Россия) (180 км)
Погода в Аяне (Хабаровский край, Россия) (180 км)
Погода в Югоренке (Якутия, Россия) (251 км)
Погода в Джане (Хабаровский край, Россия) (277 км)
Погода в Усть-Миле (Якутия, Россия) (284 км)
Погода в Чюльбю (Якутия, Россия) (309 км)
Погода в Усть-Мае (Якутия, Россия) (316 км)
Погода в Большом Шантаре (Хабаровский край, Россия) (325 км)
Погода в Чумикане (Хабаровский край, Россия) (330 км)
Погода в Токо (Якутия, Россия) (339 км)

Пояснения к столбцам:

Ветер - указаны скорость ветра в м/с - средняя за 10 мин, порывы в срок и между сроками (в фигурных скобках) и направление, откуда дует ветер: С - северный, СВ - северо-восточный, В - восточный, ЮВ - юго-восточный, Ю - южный, ЮЗ - юго-западный, З - западный, СЗ - северо-западный.
Видимость - горизонтальная дальность видимости в метрах или километрах. При видимости от 1 до 10 км при отсутствии осадков обычно наблюдается дымка, при ухудшении видимости до 1 км и менее - туман. В сухую погоду видимость может ухудшаться дымом, пылью или мглою.
Явления - указаны атмосферные явления, наблюдавшиеся в срок или в последний час перед сроком; фигурными скобками обозначены явления, наблюдавшиеся между сроками (за 1-3 часа до срока); квадратными скобками обозначены град или гололедные отложения с указанием их диаметра в мм.
Облачность - указаны через наклонную черту общая и нижняя облачность в баллах и высота нижней границы облаков в метрах; квадратными скобками обозначены формы облаков: Ci - перистые, Cs - перисто-слоистые, Cc - перисто-кучевые, Ac - высококучевые, As - высокослоистые, Sc - слоисто-кучевые, Ns - слоисто-дождевые, Cu - кучевые, Cb - кучево-дождевые. Подробнее классификацию облаков см. в Атласе облаков (PDF).
T - Температура воздуха - температура, измеренная на высоте 2 м над землей.
Td - Температура точки росы - температура, при понижении до которой содержащийся в воздухе водяной пар достигнет насыщения.
f - Относительная влажность воздуха - влажноcть воздуха, измеренная на высоте 2 м над землей.
Te - Эффективная температура - температура, которую ощущает одетый по сезону человек в тени. Характеристика душности погоды. При расчете учитывается влияние влажности воздуха и скорости ветра на теплоощущения человека.
Tes - Эффективная температура на солнце - температура, которую ощущает человек, с поправкой на солнечный нагрев. Характеристика знойности погоды. Зависит от высоты солнца над горизонтом, облачности и скорости ветра. Ночью, в пасмурную погоду, а также при ветре 12 м/с и более поправка равна нулю.
P - Атмосферное давление - приведенное к уровню моря атмосферное давление.
Po - Атмосферное давление - измеренное на уровне метеостанции атмосферное давление.
Tmin - Минимальная температура - минимум температуры воздуха на высоте 2 м над землей.
Tmax - Максимальная температура - максимум температуры воздуха на высоте 2 м над землей.
R - Количество осадков - Количество выпавших осадков за период времени, мм. При наведении курсора мыши на число - период времени, за который выпало указанное количество осадков.
R24 - Количество осадков - Количество выпавших осадков за 24 часа, мм.
S - Снежный покров - Высота снежного покрова, см. При наведении курсора мыши на число - состояние снежного покрова и степень покрытия местности в баллах.